• En España
  • Lista de países
  • Para 7 días
  • Temperatura del agua
  • Mapa Satelital
  • El tiempo en el mapa
  • Informadores
  • user-avatar
    Iniciar sesión

    Tiempo cada hora Sabanur

    Hoy, 21 Octubre, Domingo

    Tiempo Temperatura Precipitaciones Viento Presión Humedad
    00:00 +2°C° 0 mm 3 mps 747 mmHg 94%
    01:00 +2°C° 0 mm 2 mps 747 mmHg 94%
    02:00 +2°C° 0 mm 2 mps 748 mmHg 95%
    03:00 +2°C° 0 mm 2 mps 748 mmHg 96%
    04:00 +1°C° 0 mm 2 mps 748 mmHg 96%
    05:00 +1°C° 0 mm 2 mps 749 mmHg 96%
    06:00 +1°C° 0 mm 2 mps 749 mmHg 96%
    07:00 +1°C° 0 mm 2 mps 750 mmHg 91%
    08:00 +2°C° 0 mm 2 mps 750 mmHg 87%
    09:00 +3°C° 0 mm 2 mps 751 mmHg 82%
    10:00 +3°C° 0 mm 2 mps 751 mmHg 76%
    11:00 +4°C° 0 mm 2 mps 751 mmHg 70%
    12:00 +5°C° 0 mm 2 mps 752 mmHg 64%
    13:00 +5°C° 0 mm 2 mps 752 mmHg 64%
    14:00 +5°C° 0 mm 2 mps 752 mmHg 64%
    15:00 +5°C° 0 mm 2 mps 752 mmHg 65%
    16:00 +5°C° 0 mm 1 mps 753 mmHg 69%
    17:00 +4°C° 0 mm 1 mps 753 mmHg 74%
    18:00 +3°C° 0 mm 1 mps 753 mmHg 79%
    19:00 +3°C° 0 mm 1 mps 753 mmHg 81%
    20:00 +2°C° 0 mm 1 mps 753 mmHg 82%
    21:00 +2°C° 0 mm 1 mps 754 mmHg 84%
    22:00 +2°C° 0 mm 1 mps 754 mmHg 85%
    23:00 +2°C° 0 mm 1 mps 754 mmHg 86%

    Mañana, 22 Octubre, Lunes

    Tiempo Temperatura Precipitaciones Viento Presión Humedad
    00:00 +1°C° 0 mm 1 mps 754 mmHg 88%
    01:00 +1°C° 0 mm 1 mps 754 mmHg 88%
    02:00 +1°C° 0 mm 1 mps 754 mmHg 88%
    03:00 +1°C° 0 mm 1 mps 754 mmHg 88%
    04:00 +1°C° 0 mm 1 mps 754 mmHg 88%
    05:00 +1°C° 0 mm 1 mps 754 mmHg 88%
    06:00 -1°C° 0 mm 2 mps 754 mmHg 88%
    07:00 +1°C° 0 mm 2 mps 753 mmHg 83%
    08:00 +1°C° 0 mm 3 mps 753 mmHg 79%
    09:00 +1°C° 0 mm 4 mps 753 mmHg 74%
    10:00 +3°C° 0 mm 4 mps 753 mmHg 71%
    11:00 +4°C° 0 mm 4 mps 753 mmHg 69%
    12:00 +5°C° 0 mm 4 mps 752 mmHg 66%
    13:00 +5°C° 0 mm 4 mps 752 mmHg 67%
    14:00 +5°C° 0 mm 4 mps 751 mmHg 69%
    15:00 +5°C° 0 mm 4 mps 751 mmHg 71%
    16:00 +3°C° 0 mm 5 mps 750 mmHg 74%
    17:00 +3°C° 0 mm 5 mps 750 mmHg 77%
    18:00 +2°C° 0 mm 5 mps 749 mmHg 81%
    19:00 +2°C° 0 mm 5 mps 749 mmHg 82%
    20:00 +2°C° 0 mm 6 mps 748 mmHg 83%
    21:00 +2°C° 0 mm 6 mps 748 mmHg 83%
    22:00 +2°C° 0 mm 6 mps 747 mmHg 83%
    23:00 +2°C° 0 mm 6 mps 747 mmHg 83%

    Pasado mañana, 23 Octubre, Martes

    Tiempo Temperatura Precipitaciones Viento Presión Humedad
    00:00 +2°C° 0 mm 6 mps 746 mmHg 82%
    01:00 +2°C° 0 mm 6 mps 746 mmHg 84%
    02:00 +2°C° 0 mm 6 mps 746 mmHg 86%
    03:00 +2°C° 0 mm 6 mps 746 mmHg 88%
    04:00 +2°C° 0 mm 5 mps 745 mmHg 90%
    05:00 +2°C° 0 mm 5 mps 745 mmHg 91%
    06:00 +2°C° 0 mm 5 mps 744 mmHg 92%
    07:00 +3°C° 0 mm 6 mps 744 mmHg 91%
    08:00 +4°C° 0 mm 6 mps 744 mmHg 89%
    09:00 +5°C° 0 mm 6 mps 743 mmHg 87%
    10:00 +5°C° 0.1 mm 6 mps 743 mmHg 84%
    11:00 +7°C° 0.1 mm 6 mps 742 mmHg 81%
    12:00 +7°C° 0.1 mm 6 mps 742 mmHg 77%
    13:00 +7°C° 0.1 mm 6 mps 741 mmHg 74%
    14:00 +8°C° 0.1 mm 6 mps 741 mmHg 70%
    15:00 +8°C° 0.1 mm 6 mps 740 mmHg 67%
    16:00 +7°C° 0.5 mm 6 mps 740 mmHg 71%
    17:00 +6°C° 0.5 mm 7 mps 739 mmHg 76%
    18:00 +5°C° 0.5 mm 7 mps 739 mmHg 81%
    19:00 +5°C° 0.2 mm 7 mps 738 mmHg 82%
    20:00 +5°C° 0.2 mm 6 mps 737 mmHg 83%
    21:00 +5°C° 0.2 mm 6 mps 737 mmHg 83%
    22:00 +5°C° 0.2 mm 6 mps 736 mmHg 84%
    23:00 +5°C° 0.2 mm 6 mps 736 mmHg 85%

    24 Octubre, Miércoles

    Tiempo Temperatura Precipitaciones Viento Presión Humedad
    00:00 +7°C° 0.2 mm 6 mps 735 mmHg 86%
    01:00 +7°C° 0.4 mm 6 mps 735 mmHg 86%
    02:00 +7°C° 0.4 mm 6 mps 734 mmHg 86%
    03:00 +7°C° 0.4 mm 6 mps 734 mmHg 86%
    04:00 +7°C° 0 mm 5 mps 734 mmHg 87%
    05:00 +7°C° 0 mm 5 mps 734 mmHg 88%
    06:00 +7°C° 0 mm 5 mps 734 mmHg 89%
    07:00 +7°C° 0 mm 5 mps 735 mmHg 87%
    08:00 +6°C° 0 mm 4 mps 735 mmHg 85%
    09:00 +6°C° 0 mm 4 mps 735 mmHg 82%
    10:00 +7°C° 0 mm 4 mps 735 mmHg 78%
    11:00 +7°C° 0 mm 4 mps 735 mmHg 74%
    12:00 +8°C° 0 mm 4 mps 735 mmHg 70%
    13:00 +8°C° 0 mm 4 mps 735 mmHg 70%
    14:00 +9°C° 0 mm 3 mps 735 mmHg 70%
    15:00 +9°C° 0 mm 3 mps 735 mmHg 70%
    16:00 +8°C° 0 mm 3 mps 736 mmHg 75%
    17:00 +7°C° 0 mm 3 mps 736 mmHg 79%
    18:00 +5°C° 0 mm 3 mps 736 mmHg 84%
    19:00 +5°C° 0 mm 3 mps 736 mmHg 84%
    20:00 +5°C° 0 mm 3 mps 736 mmHg 84%
    21:00 +5°C° 0 mm 3 mps 736 mmHg 85%
    22:00 +5°C° 0 mm 4 mps 736 mmHg 85%
    23:00 +5°C° 0 mm 4 mps 736 mmHg 85%

    25 Octubre, Jueves

    Tiempo Temperatura Precipitaciones Viento Presión Humedad
    00:00 +6°C° 0 mm 4 mps 736 mmHg 86%
    01:00 +6°C° 0 mm 4 mps 735 mmHg 86%
    02:00 +6°C° 0 mm 4 mps 735 mmHg 86%
    03:00 +6°C° 0 mm 5 mps 735 mmHg 87%
    04:00 +6°C° 0 mm 5 mps 735 mmHg 89%
    05:00 +6°C° 0 mm 5 mps 734 mmHg 91%
    06:00 +6°C° 0 mm 5 mps 734 mmHg 93%
    07:00 +7°C° 0.2 mm 6 mps 734 mmHg 92%
    08:00 +7°C° 0.2 mm 6 mps 733 mmHg 91%
    09:00 +8°C° 0.2 mm 7 mps 733 mmHg 90%
    10:00 +8°C° 1.8 mm 7 mps 733 mmHg 90%
    11:00 +9°C° 1.8 mm 7 mps 732 mmHg 90%
    12:00 +9°C° 1.8 mm 7 mps 732 mmHg 90%
    13:00 +9°C° 1.1 mm 7 mps 731 mmHg 87%
    14:00 +8°C° 1.1 mm 7 mps 731 mmHg 84%
    15:00 +8°C° 1.1 mm 7 mps 731 mmHg 80%
    16:00 +8°C° 0.6 mm 6 mps 731 mmHg 81%
    17:00 +8°C° 0.6 mm 6 mps 731 mmHg 83%
    18:00 +8°C° 0.6 mm 6 mps 731 mmHg 84%
    19:00 +8°C° 0.7 mm 5 mps 731 mmHg 84%
    20:00 +8°C° 0.7 mm 5 mps 730 mmHg 84%
    21:00 +8°C° 0.7 mm 5 mps 730 mmHg 84%
    22:00 +8°C° 0.7 mm 5 mps 730 mmHg 84%
    23:00 +8°C° 0.7 mm 5 mps 730 mmHg 84%

    26 Octubre, Viernes

    Tiempo Temperatura Precipitaciones Viento Presión Humedad
    00:00 +8°C° 0.7 mm 5 mps 729 mmHg 84%
    01:00 +8°C° 0.8 mm 5 mps 729 mmHg 86%
    02:00 +8°C° 0.8 mm 5 mps 730 mmHg 88%
    03:00 +8°C° 0.8 mm 5 mps 730 mmHg 91%
    04:00 +8°C° 0.8 mm 4 mps 730 mmHg 91%
    05:00 +7°C° 0.8 mm 4 mps 730 mmHg 91%
    06:00 +7°C° 0.8 mm 4 mps 730 mmHg 92%
    07:00 +6°C° 0.5 mm 4 mps 731 mmHg 89%
    08:00 +7°C° 0.5 mm 3 mps 731 mmHg 86%
    09:00 +5°C° 0.5 mm 3 mps 732 mmHg 84%
    10:00 +7°C° 0.2 mm 3 mps 732 mmHg 80%
    11:00 +7°C° 0.2 mm 3 mps 732 mmHg 77%
    12:00 +7°C° 0.2 mm 3 mps 732 mmHg 73%
    13:00 +7°C° 0 mm 3 mps 733 mmHg 73%
    14:00 +5°C° 0 mm 3 mps 733 mmHg 73%
    15:00 +5°C° 0 mm 3 mps 733 mmHg 72%
    16:00 +5°C° 0 mm 3 mps 733 mmHg 76%
    17:00 +5°C° 0 mm 2 mps 733 mmHg 79%
    18:00 +4°C° 0 mm 2 mps 734 mmHg 83%
    19:00 +4°C° 0 mm 2 mps 734 mmHg 84%
    20:00 +4°C° 0 mm 2 mps 734 mmHg 86%
    21:00 +4°C° 0 mm 2 mps 734 mmHg 87%
    22:00 +3°C° 0 mm 2 mps 734 mmHg 88%
    23:00 +3°C° 0 mm 2 mps 734 mmHg 90%
    Mostrar más